Location: UFOWorks Observatory
(42.1050°N, 72.2350°W)
Time: 03:13:25
(UTC-04:00)

ISS - Visible Passes

Search period start: 25 May 2016 00:00
Search period end: 04 June 2016 00:00
Orbit: 402 x 404 km, 51.6° (Epoch: 24 May)

Date Brightness Start Highest point End Pass type
(mag) Time Alt. Az. Time Alt. Az. Time Alt. Az.
25 May -0.7 00:55:47 19° NNW 00:56:12 20° NNW 00:58:41 10° NE visible
25 May -0.2 02:31:26 10° NW 02:33:34 16° N 02:35:40 10° NE visible
25 May -1.5 04:07:39 10° NW 04:10:42 35° NNE 04:13:44 10° E visible
26 May -1.1 00:03:16 25° NNW 00:03:16 25° NNW 00:06:03 10° NE visible
26 May -0.1 01:38:28 10° NW 01:40:30 15° N 01:42:32 10° NE visible
26 May -0.9 03:15:01 10° NW 03:17:47 25° NNE 03:20:33 10° ENE visible
26 May -2.5 21:31:04 10° SSW 21:33:57 29° SE 21:36:51 10° ENE visible
26 May -1.8 23:07:16 10° W 23:10:20 37° NNW 23:13:25 10° NE visible
27 May -0.2 00:45:19 10° NW 00:47:27 16° N 00:49:36 10° NE visible
27 May -0.4 02:22:22 10° NW 02:24:49 19° NNE 02:27:16 10° ENE visible
27 May -3.0 03:58:27 10° NW 04:01:42 69° NNE 04:04:57 10° ESE visible
27 May -2.9 22:14:16 10° WSW 22:17:29 62° NNW 22:20:45 10° NE visible
27 May -0.4 23:52:02 10° WNW 23:54:26 18° NNW 23:56:49 10° NE visible
28 May -0.2 01:29:36 10° NW 01:31:47 16° N 01:33:58 10° NE visible
28 May -1.9 03:05:46 10° NW 03:08:52 40° NNE 03:11:59 10° E visible
28 May -3.5 21:21:29 10° SW 21:24:44 71° SE 21:27:59 10° ENE visible
28 May -0.8 22:58:44 10° WNW 23:01:26 23° NNW 23:04:09 10° NE visible
29 May -0.1 00:36:41 10° NW 00:38:43 15° N 00:40:46 10° NE visible
29 May -1.1 02:13:07 10° NW 02:15:58 27° NNE 02:18:49 10° E visible
29 May -3.2 03:49:23 10° WNW 03:52:34 50° SW 03:55:44 10° SE visible
29 May -1.4 22:05:29 10° W 22:08:29 32° NNW 22:11:29 10° NE visible
29 May -0.1 23:43:34 10° NW 23:45:39 16° N 23:47:45 10° NE visible
30 May -0.6 01:20:27 10° NW 01:23:00 20° NNE 01:25:31 10° ENE visible
30 May -3.4 02:56:33 10° NW 02:59:49 83° NNE 03:03:05 10° ESE visible
30 May -1.4 04:34:38 10° WSW 04:35:48 12° SW 04:36:58 10° SSW visible
30 May -2.4 21:12:24 10° WSW 21:15:36 52° NNW 21:18:48 10° NE visible
30 May -0.3 22:50:17 10° NW 22:52:35 18° N 22:54:54 10° NE visible
31 May -0.3 00:27:42 10° NW 00:29:57 17° N 00:32:12 10° NE visible
31 May -1.7 02:03:49 10° NW 02:05:52 31° NNW 02:05:52 31° NNW visible
31 May -0.6 21:56:57 10° WNW 21:59:34 22° NNW 22:02:11 10° NE visible
31 May -0.2 23:34:49 10° NW 23:36:53 15° N 23:38:57 10° NE visible
01 Jun -1.2 01:11:08 10° NW 01:13:27 27° N 01:13:27 27° N visible
01 Jun -1.1 21:03:40 10° W 21:06:35 29° NNW 21:09:30 10° NE visible
01 Jun -0.2 22:41:44 10° NW 22:43:48 15° N 22:45:51 10° NE visible
02 Jun -0.9 00:18:28 10° NW 00:21:06 22° NNE 00:21:44 21° NE visible
02 Jun -0.3 21:48:28 10° NW 21:50:42 17° N 21:52:56 10° NE visible
02 Jun -0.5 23:25:43 10° NW 23:28:04 18° NNE 23:30:16 11° NE visible
03 Jun -0.8 01:01:49 10° NW 01:02:50 18° NW 01:02:50 18° NW visible
03 Jun -0.5 20:55:07 10° WNW 20:57:38 20° NNW 21:00:10 10° NE visible
03 Jun -0.4 22:32:52 10° NW 22:34:58 16° N 22:37:04 10° NE visible
